Location: Bouysse
(45.3674°N, 1.8947°E)
Time: 21:34:17
(UTC+00:00)

IRIDIUM 104 - Pass Details

Date: 07 June 2020
Orbit: 776 x 779 km, 86.4° (Epoch: 08 July)

Event Time Altitude Azimuth Distance (km) Brightness Sun altitude
Exits shadow 02:07:37 17° 178° (S) 1,867 5.8 -15.1°
Maximum altitude 02:11:38 83° 91° (E) 791 4.4 -14.7°
Drops below altitude 10° 02:16:53 10° 5° (N) 2,342 7.8 -14.2°
Sets 02:19:15 0° 5° (N) 3,274 8.7 -14.0°
